• In Hungary
  • List of Countries
  • For 7 days
  • Water Temperature
  • Satellite Maps
  • Weather Map
  • News
  • Weather Widgets
  • user-avatar
    Login

    Hourly Weather Tyrgowishte

    Today, 22 October, Sunday

    Time Temperature Precipitation Wind Pressure Humidity
    00:00 +16°C° 0 mm 2 mps 742 mmHg 57%
    01:00 +16°C° 0 mm 2 mps 742 mmHg 58%
    02:00 +16°C° 0 mm 3 mps 742 mmHg 58%
    03:00 +16°C° 0 mm 3 mps 742 mmHg 61%
    04:00 +14°C° 0 mm 3 mps 742 mmHg 64%
    05:00 +14°C° 0 mm 3 mps 742 mmHg 67%
    06:00 +14°C° 0 mm 3 mps 743 mmHg 66%
    07:00 +15°C° 0 mm 2 mps 743 mmHg 66%
    08:00 +14°C° 0 mm 3 mps 743 mmHg 64%
    09:00 +17°C° 0 mm 2 mps 743 mmHg 59%
    10:00 +18°C° 0 mm 2 mps 744 mmHg 53%
    11:00 +19°C° 0 mm 2 mps 744 mmHg 48%
    12:00 +20°C° 0 mm 2 mps 744 mmHg 46%
    13:00 +21°C° 0 mm 2 mps 743 mmHg 43%
    14:00 +22°C° 0 mm 1 mps 743 mmHg 41%
    15:00 +20°C° 0 mm 2 mps 743 mmHg 44%
    16:00 +20°C° 0 mm 2 mps 743 mmHg 47%
    17:00 +19°C° 0 mm 2 mps 743 mmHg 50%
    18:00 +18°C° 0 mm 2 mps 743 mmHg 54%
    19:00 +17°C° 0 mm 2 mps 743 mmHg 58%
    20:00 +16°C° 0 mm 3 mps 743 mmHg 61%
    21:00 +14°C° 0 mm 3 mps 743 mmHg 65%
    22:00 +14°C° 0 mm 3 mps 743 mmHg 70%
    23:00 +13°C° 0 mm 3 mps 743 mmHg 74%

    Tomorrow, 23 October, Monday

    Time Temperature Precipitation Wind Pressure Humidity
    00:00 +13°C° 0 mm 3 mps 743 mmHg 76%
    01:00 +13°C° 0 mm 3 mps 742 mmHg 79%
    02:00 +13°C° 0 mm 4 mps 742 mmHg 81%
    03:00 +13°C° 0 mm 4 mps 742 mmHg 82%
    04:00 +13°C° 0 mm 4 mps 741 mmHg 84%
    05:00 +12°C° 0 mm 4 mps 741 mmHg 85%
    06:00 +13°C° 0 mm 4 mps 740 mmHg 84%
    07:00 +13°C° 0 mm 5 mps 740 mmHg 83%
    08:00 +14°C° 0 mm 5 mps 740 mmHg 83%
    09:00 +15°C° 0 mm 6 mps 739 mmHg 77%
    10:00 +16°C° 0 mm 6 mps 739 mmHg 71%
    11:00 +17°C° 0 mm 6 mps 739 mmHg 65%
    12:00 +19°C° 0 mm 6 mps 738 mmHg 64%
    13:00 +19°C° 0 mm 5 mps 738 mmHg 64%
    14:00 +19°C° 0 mm 4 mps 737 mmHg 63%
    15:00 +19°C° 0.1 mm 4 mps 737 mmHg 67%
    16:00 +18°C° 0.1 mm 4 mps 737 mmHg 72%
    17:00 +17°C° 0.1 mm 3 mps 736 mmHg 76%
    18:00 +17°C° 0.5 mm 4 mps 736 mmHg 80%
    19:00 +17°C° 0.5 mm 4 mps 736 mmHg 84%
    20:00 +15°C° 0.5 mm 5 mps 735 mmHg 87%
    21:00 +15°C° 0.1 mm 5 mps 735 mmHg 87%
    22:00 +15°C° 0.1 mm 5 mps 735 mmHg 87%
    23:00 +15°C° 0.1 mm 5 mps 735 mmHg 87%

    Day after tomorrow, 24 October, Tuesday

    Time Temperature Precipitation Wind Pressure Humidity
    00:00 +15°C° 0.2 mm 5 mps 735 mmHg 88%
    01:00 +15°C° 0.2 mm 5 mps 734 mmHg 89%
    02:00 +15°C° 0.2 mm 4 mps 734 mmHg 90%
    03:00 +15°C° 0.6 mm 4 mps 734 mmHg 91%
    04:00 +14°C° 0.6 mm 4 mps 734 mmHg 91%
    05:00 +14°C° 0.6 mm 4 mps 734 mmHg 92%
    06:00 +14°C° 2.8 mm 4 mps 734 mmHg 91%
    07:00 +14°C° 2.8 mm 4 mps 735 mmHg 90%
    08:00 +14°C° 2.8 mm 4 mps 735 mmHg 89%
    09:00 +15°C° 0.4 mm 4 mps 736 mmHg 85%
    10:00 +17°C° 0.4 mm 4 mps 736 mmHg 80%
    11:00 +17°C° 0.4 mm 4 mps 737 mmHg 75%
    12:00 +17°C° 0.1 mm 5 mps 737 mmHg 72%
    13:00 +19°C° 0.1 mm 5 mps 737 mmHg 69%
    14:00 +20°C° 0.1 mm 5 mps 738 mmHg 66%
    15:00 +19°C° 0.5 mm 5 mps 738 mmHg 71%
    16:00 +17°C° 0.5 mm 6 mps 738 mmHg 76%
    17:00 +16°C° 0.5 mm 6 mps 739 mmHg 81%
    18:00 +16°C° 0.9 mm 6 mps 739 mmHg 83%
    19:00 +15°C° 0.9 mm 6 mps 740 mmHg 85%
    20:00 +15°C° 0.9 mm 6 mps 741 mmHg 86%
    21:00 +14°C° 0.8 mm 7 mps 741 mmHg 86%
    22:00 +14°C° 0.8 mm 7 mps 742 mmHg 85%
    23:00 +12°C° 0.8 mm 7 mps 742 mmHg 85%

    25 October, Wednesday

    Time Temperature Precipitation Wind Pressure Humidity
    00:00 +12°C° 0.1 mm 7 mps 742 mmHg 83%
    01:00 +11°C° 0.1 mm 7 mps 743 mmHg 81%
    02:00 +11°C° 0.1 mm 7 mps 743 mmHg 79%
    03:00 +10°C° 0.1 mm 7 mps 743 mmHg 78%
    04:00 +9°C° 0.1 mm 7 mps 744 mmHg 77%
    05:00 +9°C° 0.1 mm 6 mps 744 mmHg 75%
    06:00 +9°C° 0.3 mm 6 mps 744 mmHg 74%
    07:00 +8°C° 0.3 mm 6 mps 745 mmHg 73%
    08:00 +8°C° 0.3 mm 5 mps 746 mmHg 72%
    09:00 +8°C° 0 mm 5 mps 746 mmHg 69%
    10:00 +9°C° 0 mm 6 mps 747 mmHg 66%
    11:00 +10°C° 0 mm 6 mps 747 mmHg 63%
    12:00 +10°C° 0 mm 5 mps 748 mmHg 61%
    13:00 +12°C° 0 mm 5 mps 748 mmHg 58%
    14:00 +13°C° 0 mm 4 mps 748 mmHg 56%
    15:00 +12°C° 0 mm 4 mps 748 mmHg 58%
    16:00 +12°C° 0 mm 4 mps 748 mmHg 60%
    17:00 +11°C° 0 mm 3 mps 749 mmHg 62%
    18:00 +11°C° 0 mm 3 mps 749 mmHg 64%
    19:00 +10°C° 0 mm 3 mps 749 mmHg 67%
    20:00 +10°C° 0 mm 3 mps 750 mmHg 69%
    21:00 +9°C° 0 mm 2 mps 750 mmHg 71%
    22:00 +9°C° 0 mm 2 mps 750 mmHg 73%
    23:00 +8°C° 0 mm 2 mps 750 mmHg 74%

    26 October, Thursday

    Time Temperature Precipitation Wind Pressure Humidity
    00:00 +8°C° 0 mm 2 mps 750 mmHg 76%
    01:00 +8°C° 0 mm 2 mps 750 mmHg 77%
    02:00 +8°C° 0 mm 2 mps 750 mmHg 78%
    03:00 +7°C° 0 mm 2 mps 750 mmHg 80%
    04:00 +7°C° 0 mm 2 mps 750 mmHg 81%
    05:00 +7°C° 0 mm 2 mps 750 mmHg 83%
    06:00 +8°C° 0 mm 2 mps 750 mmHg 81%
    07:00 +8°C° 0 mm 2 mps 750 mmHg 79%
    08:00 +9°C° 0 mm 2 mps 750 mmHg 78%
    09:00 +12°C° 0 mm 2 mps 750 mmHg 71%
    10:00 +13°C° 0 mm 3 mps 750 mmHg 64%
    11:00 +16°C° 0 mm 3 mps 750 mmHg 58%
    12:00 +16°C° 0 mm 3 mps 749 mmHg 56%
    13:00 +17°C° 0 mm 4 mps 749 mmHg 54%
    14:00 +18°C° 0 mm 4 mps 749 mmHg 53%
    15:00 +17°C° 0 mm 3 mps 748 mmHg 56%
    16:00 +16°C° 0 mm 3 mps 748 mmHg 59%
    17:00 +15°C° 0 mm 2 mps 748 mmHg 63%
    18:00 +14°C° 0 mm 2 mps 748 mmHg 65%
    19:00 +13°C° 0 mm 2 mps 748 mmHg 66%
    20:00 +13°C° 0 mm 2 mps 748 mmHg 68%
    21:00 +13°C° 0 mm 2 mps 748 mmHg 70%
    22:00 +12°C° 0 mm 2 mps 748 mmHg 71%
    23:00 +12°C° 0 mm 2 mps 748 mmHg 72%

    27 October, Friday

    Time Temperature Precipitation Wind Pressure Humidity
    00:00 +12°C° 0 mm 2 mps 748 mmHg 75%
    01:00 +12°C° 0 mm 2 mps 748 mmHg 78%
    02:00 +12°C° 0 mm 2 mps 748 mmHg 81%
    03:00 +10°C° 0 mm 2 mps 748 mmHg 82%
    04:00 +10°C° 0 mm 2 mps 748 mmHg 83%
    05:00 +10°C° 0 mm 2 mps 747 mmHg 84%
    06:00 +10°C° 0 mm 2 mps 747 mmHg 82%
    07:00 +12°C° 0 mm 2 mps 747 mmHg 80%
    08:00 +12°C° 0 mm 2 mps 747 mmHg 77%
    09:00 +13°C° 0 mm 3 mps 747 mmHg 70%
    10:00 +16°C° 0 mm 3 mps 747 mmHg 63%
    11:00 +18°C° 0 mm 4 mps 747 mmHg 55%
    12:00 +19°C° 0 mm 4 mps 746 mmHg 53%
    13:00 +19°C° 0 mm 4 mps 745 mmHg 50%
    14:00 +20°C° 0 mm 4 mps 745 mmHg 48%
    15:00 +19°C° 0 mm 3 mps 744 mmHg 52%
    16:00 +18°C° 0 mm 3 mps 744 mmHg 56%
    17:00 +17°C° 0 mm 2 mps 743 mmHg 60%
    18:00 +16°C° 0 mm 2 mps 743 mmHg 63%
    19:00 +15°C° 0 mm 2 mps 742 mmHg 65%
    20:00 +15°C° 0 mm 2 mps 742 mmHg 68%
    21:00 +14°C° 0 mm 2 mps 742 mmHg 68%
    22:00 +14°C° 0 mm 2 mps 741 mmHg 68%
    23:00 +14°C° 0 mm 2 mps 740 mmHg 69%
    Show more